User: anonymous   Login
Location: *
(58.7167°N, 26.1833°E)
Time: 10:56:31
(UTC+00:00)
Language:

Cosmos 2098 Rocket - Orbit

View from above orbital plane
View from above orbital plane
View from above satellite
View from above satellite

Ground track
Ground track

The orbit data is extracted from the following two-line orbital elements,

1 20775U 90078B   19294.35743582  .00002624  00000-0  12869-3 0  9990
2 20775  82.9277  64.5163 0575774 218.0474 137.8722 14.33629604471329
Epoch (UTC): 21 October 2019 08:34:42
Eccentricity: 0.0575774
inclination: 82.9277°
perigee height: 367 km
apogee height: 1192 km
right ascension of ascending node: 64.5163°
argument of perigee: 218.0474°
revolutions per day: 14.33629604
mean anomaly at epoch: 137.8722°
orbit number at epoch: 47132

The dashed part of the orbit path shows where the satellite is in the earth's shadow,  

DLR